Regional Weather Roundup
Issued by NWS

Home | Current Version | Previous Version | Text Only | Print | Product List | Glossary On
Versions: 1 2 3 4 5 6 7 8 9 10 11 12 13 14 15 16 17 18 19 20 21 22 23 24 25 26 27 28 29 30 31 32 33 34 35 36 37 38 39 40 41 42 43 44 45 46 47 48 49 50
000
ASUS43 KDTX 312101
RWRMI
MICHIGAN HOURLY REGIONAL WEATHER ROUNDUP
NATIONAL WEATHER SERVICE DETROIT/PONTIAC MI
500 PM EDT TUE MAY 31 2016

NOTE: "FAIR" INDICATES FEW OR NO CLOUDS BELOW 12,000 FEET WITH NO
SIGNIFICANT WEATHER AND/OR OBSTRUCTION TO VISIBILITY.

MIZ047>049-052>055-059>063-066>070-074>076-081>083-312200-
SOUTHEAST LOWER MICHIGAN

CITY           SKY/WX    TMP DP  RH WIND       PRES   REMARKS
ADRIAN         MOSUNNY   83  46  27 E9        30.03F
ALMA           SUNNY     80  49  33 SE8       30.03F
ANN ARBOR      MOSUNNY   79  48  33 E8        30.04S
BAD AXE        SUNNY     67  49  53 N8        30.11R
CARO           MOSUNNY   77  55  47 NE5       30.06S
DETROIT CITY   CLOUDY    77  51  40 E9        30.05S
DETROIT        CLOUDY    79  45  29 E7        30.04F
FLINT          MOSUNNY   84  51  31 E9        30.04F
GROSSE ILE     CLOUDY    73  61  64 S6        30.03F
HILLSDALE      SUNNY     82  31  15 SE6       30.03F
HOWELL         MOSUNNY   82  45  27 NE6       30.03F

CITY           SKY/WX    TMP DP  RH WIND       PRES   REMARKS
JACKSON        MOSUNNY   82  46  28 SE10      30.03F
LAMBERTVILLE   MOSUNNY   82  50  33 E9        30.03F
LANSING        MOSUNNY   82  50  32 SE10      30.03F
LAPEER         FAIR      77  55  46 E7        30.06F
MASON          MOSUNNY   82  49  31 SE3       30.03F
MONROE         MOSUNNY   79  56  45 NE3       30.03F
PONTIAC        PTSUNNY   81  52  36 E12       30.04S
PORT HOPE        N/A     57  49  74 NE8       30.11S
PORT HURON     CLOUDY    66  54  63 NE7       30.09S
TRI CITIES     MOSUNNY   74  58  57 NE16      30.06F
MIDLAND        FAIR      70  55  59 E13G20    30.06F
TROY           PTSUNNY   81  50  33 E12       30.06S
SAGINAW HB     MOSUNNY   77  54  44 N15       30.05S
$$
MIZ043>046-050>051-056>058-064>065-071>073-077>080-312200-
SOUTHWEST LOWER MICHIGAN

CITY           SKY/WX    TMP DP  RH WIND       PRES   REMARKS
BATTLE CREEK   CLOUDY    80  43  26 SE10      30.02F
BENTON HARBOR  PTSUNNY   83  52  34 E12       29.96F
BIG RAPIDS     SUNNY     79  52  38 SE8       30.02S
COLDWATER      SUNNY     82  47  29 E8        30.00F
FREMONT        FAIR      83  48  30 S5        30.00S
HOLLAND        SUNNY     87  47  24 SE12      29.99F
GRAND RAPIDS   MOSUNNY   86  48  26 E9        30.00F
IONIA          FAIR      81  47  30 SE3       30.01F
KALAMAZOO      PTSUNNY   81  46  29 VRB3      30.01F
LUDINGTON      SUNNY     76  55  48 W7        30.00S
MARSHALL       MOSUNNY   82  47  28 E7        30.02F
MOUNT PLEASANT MOSUNNY   81  53  38 E12       30.03S
MUSKEGON       MOSUNNY   87  47  24 SE10      29.98F
SOUTH HAVEN    PTSUNNY   84  47  27 E8        29.97F
$$
MIZ016>042-312200-
NORTHERN LOWER MICHIGAN

CITY           SKY/WX    TMP DP  RH WIND       PRES   REMARKS
ALPENA         SUNNY     65  45  48 E8        30.12S
BEAVER ISLAND  SUNNY     68  47  47 E10       30.07S
BELLAIRE       SUNNY     81  45  27 E8        30.02F
CADILLAC       SUNNY     80  50  35 SE6       30.03F
CHARLEVOIX     SUNNY     75  51  42 E9        30.07F
FRANKFORT      SUNNY     79  57  45 N7        30.00S
GAYLORD        SUNNY     76  41  28 VRB6      30.06F
GRAYLING       SUNNY     81  46  29 NE7G21    30.04F
HARBOR SPRINGS SUNNY     72  48  42 E9G16     30.06F
HOUGHTON LAKE  MOSUNNY   78  56  46 SE12      30.05S
MANISTEE       SUNNY     81  54  39 N10       30.00F
OSCODA         SUNNY     61  44  53 NE9G16    30.13S
PELLSTON       SUNNY     73  43  33 SE10      30.08F
ROGERS CITY    SUNNY     60  47  62 NE7       30.13S
TRAVERSE CITY  MOSUNNY   72  55  55 NW5       30.00F
$$
MIZ007>008-015-312200-
EASTERN UPPER MICHIGAN

CITY           SKY/WX    TMP DP  RH WIND       PRES   REMARKS
KINROSS          N/A     70  46  43 SE10G18   30.09S
MACKINAC ISLAN SUNNY     63  45  51 E8G16     30.10F
NEWBERRY       SUNNY     72  51  47 S7        30.07R
S. S. MARIE    SUNNY     71  49  45 SE8       30.08R
MUNISING         N/A     52  45  77 NE10      30.05F
$$
MIZ004>006-011>014-085-312200-
CENTRAL UPPER MICHIGAN

CITY           SKY/WX    TMP DP  RH WIND       PRES   REMARKS
MANISTIQUE     MOSUNNY   67  44  43 E12G20    30.07S
ESCANABA       SUNNY     64  48  55 SE9       30.05
MENOMINEE        N/A    N/A N/A N/A MISG        N/A
SAWYER-GWINN   SUNNY     63  46  55 NE10      30.05S
$$
MIZ001>003-009>011-084-312200-
WESTERN UPPER MICHIGAN

CITY           SKY/WX    TMP DP  RH WIND       PRES   REMARKS
IRON MOUNTAIN  MOSUNNY   70  44  39 SE16G23   30.00F
HOUGHTON       CLOUDY    49  39  68 E21G28    30.00F
COPPER HARBOR    N/A     52  38  58 SE7       30.03F
IRONWOOD       CLOUDY    72  55  56 SE13      29.85F
$$

ABBREVIATIONS USED IN REMARKS
   TC - TEMPERATURE IN CELSIUS
  WCI - WIND CHILL INDEX
   HX - HEAT INDEX
  VSB - VISIBILITY




USA.gov is the U.S. government's official web portal to all federal, state and local government web resources and services.